owner,sensor,date,latitude,longitude,vertical_datum,sea_water_temperature,qcFlag 
DISL,ioos:station:DISL:CATA:1,2019-01-01T06:30:00Z,30.3085,-88.1395,0.0,15.49,11111222 
DISL,ioos:station:DISL:CATA:1,2019-01-01T07:30:00Z,30.3085,-88.1395,0.0,15.39,11111222 
DISL,ioos:station:DISL:CATA:1,2019-01-01T08:30:00Z,30.3085,-88.1395,0.0,15.41,11111222 
DISL,ioos:station:DISL:CATA:1,2019-01-01T09:30:00Z,30.3085,-88.1395,0.0,15.46,11111222 
DISL,ioos:station:DISL:CATA:1,2019-01-01T10:30:00Z,30.3085,-88.1395,0.0,15.63,11111222 
DISL,ioos:station:DISL:CATA:1,2019-01-01T11:30:00Z,30.3085,-88.1395,0.0,15.79,11111222 
DISL,ioos:station:DISL:CATA:1,2019-01-01T12:30:00Z,30.3085,-88.1395,0.0,15.63,11111222 
DISL,ioos:station:DISL:CATA:1,2019-01-01T13:30:00Z,30.3085,-88.1395,0.0,15.61,11111222 
DISL,ioos:station:DISL:CATA:1,2019-01-01T14:30:00Z,30.3085,-88.1395,0.0,15.63,11111222 
DISL,ioos:station:DISL:CATA:1,2019-01-01T15:30:00Z,30.3085,-88.1395,0.0,15.63,11111222 
DISL,ioos:station:DISL:CATA:1,2019-01-01T16:30:00Z,30.3085,-88.1395,0.0,15.67,11111222 
DISL,ioos:station:DISL:CATA:1,2019-01-01T17:30:00Z,30.3085,-88.1395,0.0,15.83,11111222 
DISL,ioos:station:DISL:CATA:1,2019-01-01T18:30:00Z,30.3085,-88.1395,0.0,15.72,11111222 
DISL,ioos:station:DISL:CATA:1,2019-01-01T19:30:00Z,30.3085,-88.1395,0.0,15.78,11111222 
DISL,ioos:station:DISL:CATA:1,2019-01-01T20:30:00Z,30.3085,-88.1395,0.0,15.98,11111222 
DISL,ioos:station:DISL:CATA:1,2019-01-01T21:30:00Z,30.3085,-88.1395,0.0,16.53,11111222 
DISL,ioos:station:DISL:CATA:1,2019-01-01T22:30:00Z,30.3085,-88.1395,0.0,16.95,11111222 
DISL,ioos:station:DISL:CATA:1,2019-01-01T23:30:00Z,30.3085,-88.1395,0.0,17.21,11111222 
DISL,ioos:station:DISL:CATA:1,2019-01-02T00:30:00Z,30.3085,-88.1395,0.0,17.36,11111222 
DISL,ioos:station:DISL:CATA:1,2019-01-02T01:30:00Z,30.3085,-88.1395,0.0,17.3,11111222 
DISL,ioos:station:DISL:CATA:1,2019-01-02T02:30:00Z,30.3085,-88.1395,0.0,17.37,11111222 
DISL,ioos:station:DISL:CATA:1,2019-01-02T03:30:00Z,30.3085,-88.1395,0.0,17.34,11111222 
DISL,ioos:station:DISL:CATA:1,2019-01-02T04:30:00Z,30.3085,-88.1395,0.0,17.32,11111222 
DISL,ioos:station:DISL:CATA:1,2019-01-02T05:30:00Z,30.3085,-88.1395,0.0,16.03,11111222 
DISL,ioos:station:DISL:CATA:1,2019-01-02T06:30:00Z,30.3085,-88.1395,0.0,15.65,11111222 
DISL,ioos:station:DISL:CATA:1,2019-01-02T07:30:00Z,30.3085,-88.1395,0.0,15.57,11111222 
DISL,ioos:station:DISL:CATA:1,2019-01-02T08:30:00Z,30.3085,-88.1395,0.0,15.65,11111222 
DISL,ioos:station:DISL:CATA:1,2019-01-02T09:30:00Z,30.3085,-88.1395,0.0,15.74,11111222 
DISL,ioos:station:DISL:CATA:1,2019-01-02T10:30:00Z,30.3085,-88.1395,0.0,15.83,11111222 
DISL,ioos:station:DISL:CATA:1,2019-01-02T11:30:00Z,30.3085,-88.1395,0.0,16.02,11111222 
DISL,ioos:station:DISL:CATA:1,2019-01-02T12:30:00Z,30.3085,-88.1395,0.0,16.16,11111222 
DISL,ioos:station:DISL:CATA:1,2019-01-02T13:30:00Z,30.3085,-88.1395,0.0,16.18,11111222 
DISL,ioos:station:DISL:CATA:1,2019-01-02T14:30:00Z,30.3085,-88.1395,0.0,15.98,11111222 
DISL,ioos:station:DISL:CATA:1,2019-01-02T15:30:00Z,30.3085,-88.1395,0.0,15.79,11111222 
DISL,ioos:station:DISL:CATA:1,2019-01-02T16:30:00Z,30.3085,-88.1395,0.0,16.13,11111222 
DISL,ioos:station:DISL:CATA:1,2019-01-02T17:30:00Z,30.3085,-88.1395,0.0,16.64,11111222 
DISL,ioos:station:DISL:CATA:1,2019-01-02T18:30:00Z,30.3085,-88.1395,0.0,16.72,11111222 
DISL,ioos:station:DISL:CATA:1,2019-01-02T19:30:00Z,30.3085,-88.1395,0.0,16.77,11111222 
DISL,ioos:station:DISL:CATA:1,2019-01-02T20:30:00Z,30.3085,-88.1395,0.0,16.17,11111222 
DISL,ioos:station:DISL:CATA:1,2019-01-02T21:30:00Z,30.3085,-88.1395,0.0,16.68,11111222 
DISL,ioos:station:DISL:CATA:1,2019-01-02T22:30:00Z,30.3085,-88.1395,0.0,16.83,11111222 
DISL,ioos:station:DISL:CATA:1,2019-01-02T23:30:00Z,30.3085,-88.1395,0.0,16.95,11111222 
DISL,ioos:station:DISL:CATA:1,2019-01-03T00:30:00Z,30.3085,-88.1395,0.0,17.07,11111222 
DISL,ioos:station:DISL:CATA:1,2019-01-03T01:30:00Z,30.3085,-88.1395,0.0,17.3,11111222 
DISL,ioos:station:DISL:CATA:1,2019-01-03T02:30:00Z,30.3085,-88.1395,0.0,17.41,11111222 
DISL,ioos:station:DISL:CATA:1,2019-01-03T03:30:00Z,30.3085,-88.1395,0.0,17.47,11111222 
DISL,ioos:station:DISL:CATA:1,2019-01-03T04:30:00Z,30.3085,-88.1395,0.0,17.46,11111222 
DISL,ioos:station:DISL:CATA:1,2019-01-03T05:30:00Z,30.3085,-88.1395,0.0,17.41,11111222 
DISL,ioos:station:DISL:CATA:1,2019-01-03T06:30:00Z,30.3085,-88.1395,0.0,16.63,11111222 
DISL,ioos:station:DISL:CATA:1,2019-01-03T07:30:00Z,30.3085,-88.1395,0.0,16.3,11111222 
DISL,ioos:station:DISL:CATA:1,2019-01-03T08:30:00Z,30.3085,-88.1395,0.0,16.29,11111222 
DISL,ioos:station:DISL:CATA:1,2019-01-03T09:30:00Z,30.3085,-88.1395,0.0,16.22,11111222 
DISL,ioos:station:DISL:CATA:1,2019-01-03T10:30:00Z,30.3085,-88.1395,0.0,16.19,11111222 
DISL,ioos:station:DISL:CATA:1,2019-01-03T11:30:00Z,30.3085,-88.1395,0.0,16.16,11111222 
DISL,ioos:station:DISL:CATA:1,2019-01-03T12:30:00Z,30.3085,-88.1395,0.0,16.18,11111222 
DISL,ioos:station:DISL:CATA:1,2019-01-03T13:30:00Z,30.3085,-88.1395,0.0,16.11,11111222 
DISL,ioos:station:DISL:CATA:1,2019-01-03T14:30:00Z,30.3085,-88.1395,0.0,15.91,11111222 
DISL,ioos:station:DISL:CATA:1,2019-01-03T15:30:00Z,30.3085,-88.1395,0.0,15.71,11111222 
DISL,ioos:station:DISL:CATA:1,2019-01-03T16:30:00Z,30.3085,-88.1395,0.0,15.66,11111222 
DISL,ioos:station:DISL:CATA:1,2019-01-03T17:30:00Z,30.3085,-88.1395,0.0,15.74,11111222 
DISL,ioos:station:DISL:CATA:1,2019-01-03T18:30:00Z,30.3085,-88.1395,0.0,15.77,11111222 
DISL,ioos:station:DISL:CATA:1,2019-01-03T19:30:00Z,30.3085,-88.1395,0.0,15.87,11111222 
DISL,ioos:station:DISL:CATA:1,2019-01-03T20:30:00Z,30.3085,-88.1395,0.0,15.95,11111222 
DISL,ioos:station:DISL:CATA:1,2019-01-03T21:30:00Z,30.3085,-88.1395,0.0,16.04,11111222 
DISL,ioos:station:DISL:CATA:1,2019-01-03T22:30:00Z,30.3085,-88.1395,0.0,16.05,11111222 
DISL,ioos:station:DISL:CATA:1,2019-01-03T23:30:00Z,30.3085,-88.1395,0.0,16.46,11111222 
DISL,ioos:station:DISL:CATA:1,2019-01-04T00:30:00Z,30.3085,-88.1395,0.0,16.77,11111222 
DISL,ioos:station:DISL:CATA:1,2019-01-04T01:30:00Z,30.3085,-88.1395,0.0,16.62,11111222 
DISL,ioos:station:DISL:CATA:1,2019-01-04T02:30:00Z,30.3085,-88.1395,0.0,17.0,11111222 
DISL,ioos:station:DISL:CATA:1,2019-01-04T03:30:00Z,30.3085,-88.1395,0.0,17.14,11111222 
DISL,ioos:station:DISL:CATA:1,2019-01-04T04:30:00Z,30.3085,-88.1395,0.0,17.17,11111222 
DISL,ioos:station:DISL:CATA:1,2019-01-04T05:30:00Z,30.3085,-88.1395,0.0,17.09,11111222 
DISL,ioos:station:DISL:CATA:1,2019-01-04T06:30:00Z,30.3085,-88.1395,0.0,16.95,11111222 
DISL,ioos:station:DISL:CATA:1,2019-01-04T07:30:00Z,30.3085,-88.1395,0.0,16.46,11111222 
DISL,ioos:station:DISL:CATA:1,2019-01-04T08:30:00Z,30.3085,-88.1395,0.0,16.83,11111222 
DISL,ioos:station:DISL:CATA:1,2019-01-04T09:30:00Z,30.3085,-88.1395,0.0,16.78,11111222 
DISL,ioos:station:DISL:CATA:1,2019-01-04T10:30:00Z,30.3085,-88.1395,0.0,16.78,11111222 
DISL,ioos:station:DISL:CATA:1,2019-01-04T11:30:00Z,30.3085,-88.1395,0.0,16.76,11111222 
DISL,ioos:station:DISL:CATA:1,2019-01-04T12:30:00Z,30.3085,-88.1395,0.0,16.75,11111222 
DISL,ioos:station:DISL:CATA:1,2019-01-04T13:30:00Z,30.3085,-88.1395,0.0,16.58,11111222 
DISL,ioos:station:DISL:CATA:1,2019-01-04T14:30:00Z,30.3085,-88.1395,0.0,16.42,11111222 
DISL,ioos:station:DISL:CATA:1,2019-01-04T15:30:00Z,30.3085,-88.1395,0.0,16.51,11111222 
DISL,ioos:station:DISL:CATA:1,2019-01-04T16:30:00Z,30.3085,-88.1395,0.0,16.61,11111222 
DISL,ioos:station:DISL:CATA:1,2019-01-04T17:30:00Z,30.3085,-88.1395,0.0,16.88,11111222 
DISL,ioos:station:DISL:CATA:1,2019-01-04T18:30:00Z,30.3085,-88.1395,0.0,16.95,11111222 
DISL,ioos:station:DISL:CATA:1,2019-01-04T19:30:00Z,30.3085,-88.1395,0.0,16.95,11111222 
DISL,ioos:station:DISL:CATA:1,2019-01-04T20:30:00Z,30.3085,-88.1395,0.0,17.0,11111222 
DISL,ioos:station:DISL:CATA:1,2019-01-04T21:30:00Z,30.3085,-88.1395,0.0,16.94,11111222 
DISL,ioos:station:DISL:CATA:1,2019-01-04T22:30:00Z,30.3085,-88.1395,0.0,16.8,11111222 
DISL,ioos:station:DISL:CATA:1,2019-01-04T23:30:00Z,30.3085,-88.1395,0.0,16.67,11111222 
DISL,ioos:station:DISL:CATA:1,2019-01-05T00:30:00Z,30.3085,-88.1395,0.0,16.57,11111222 
DISL,ioos:station:DISL:CATA:1,2019-01-05T01:30:00Z,30.3085,-88.1395,0.0,16.67,11111222 
DISL,ioos:station:DISL:CATA:1,2019-01-05T02:30:00Z,30.3085,-88.1395,0.0,16.6,11111222 
DISL,ioos:station:DISL:CATA:1,2019-01-05T03:30:00Z,30.3085,-88.1395,0.0,16.49,11111222 
DISL,ioos:station:DISL:CATA:1,2019-01-05T04:30:00Z,30.3085,-88.1395,0.0,16.35,11111222 
DISL,ioos:station:DISL:CATA:1,2019-01-05T05:30:00Z,30.3085,-88.1395,0.0,16.26,11111222 
DISL,ioos:station:DISL:CATA:1,2019-01-05T06:30:00Z,30.3085,-88.1395,0.0,16.21,11111222 
DISL,ioos:station:DISL:CATA:1,2019-01-05T07:30:00Z,30.3085,-88.1395,0.0,15.64,11111222 
DISL,ioos:station:DISL:CATA:1,2019-01-05T08:30:00Z,30.3085,-88.1395,0.0,15.3,11111222 
DISL,ioos:station:DISL:CATA:1,2019-01-05T09:30:00Z,30.3085,-88.1395,0.0,15.23,11111222 
DISL,ioos:station:DISL:CATA:1,2019-01-05T10:30:00Z,30.3085,-88.1395,0.0,15.15,11111222 
DISL,ioos:station:DISL:CATA:1,2019-01-05T11:30:00Z,30.3085,-88.1395,0.0,15.02,11111222 
DISL,ioos:station:DISL:CATA:1,2019-01-05T12:30:00Z,30.3085,-88.1395,0.0,14.89,11111222 
DISL,ioos:station:DISL:CATA:1,2019-01-05T13:30:00Z,30.3085,-88.1395,0.0,14.73,11111222 
DISL,ioos:station:DISL:CATA:1,2019-01-05T14:30:00Z,30.3085,-88.1395,0.0,14.62,11111222 
DISL,ioos:station:DISL:CATA:1,2019-01-05T15:30:00Z,30.3085,-88.1395,0.0,14.72,11111222 
DISL,ioos:station:DISL:CATA:1,2019-01-05T16:30:00Z,30.3085,-88.1395,0.0,14.86,11111222 
DISL,ioos:station:DISL:CATA:1,2019-01-05T17:30:00Z,30.3085,-88.1395,0.0,14.96,11111222 
DISL,ioos:station:DISL:CATA:1,2019-01-05T18:30:00Z,30.3085,-88.1395,0.0,14.92,11111222 
DISL,ioos:station:DISL:CATA:1,2019-01-05T19:30:00Z,30.3085,-88.1395,0.0,15.66,11111222 
DISL,ioos:station:DISL:CATA:1,2019-01-05T20:30:00Z,30.3085,-88.1395,0.0,15.81,11111222 
DISL,ioos:station:DISL:CATA:1,2019-01-05T21:30:00Z,30.3085,-88.1395,0.0,15.96,11111222 
DISL,ioos:station:DISL:CATA:1,2019-01-05T22:30:00Z,30.3085,-88.1395,0.0,15.79,11111222 
DISL,ioos:station:DISL:CATA:1,2019-01-05T23:30:00Z,30.3085,-88.1395,0.0,15.59,11111222 
DISL,ioos:station:DISL:CATA:1,2019-01-06T00:30:00Z,30.3085,-88.1395,0.0,15.4,11111222 
DISL,ioos:station:DISL:CATA:1,2019-01-06T01:30:00Z,30.3085,-88.1395,0.0,15.39,11111222 
DISL,ioos:station:DISL:CATA:1,2019-01-06T16:30:00Z,30.3085,-88.1395,0.0,14.64,11111222 
DISL,ioos:station:DISL:CATA:1,2019-01-06T17:30:00Z,30.3085,-88.1395,0.0,14.93,11111222 
DISL,ioos:station:DISL:CATA:1,2019-01-06T18:30:00Z,30.3085,-88.1395,0.0,15.2,11111222 
DISL,ioos:station:DISL:CATA:1,2019-01-06T19:30:00Z,30.3085,-88.1395,0.0,15.57,11111222 
DISL,ioos:station:DISL:CATA:1,2019-01-06T20:30:00Z,30.3085,-88.1395,0.0,15.79,11111222 
DISL,ioos:station:DISL:CATA:1,2019-01-06T21:30:00Z,30.3085,-88.1395,0.0,15.76,11111222 
DISL,ioos:station:DISL:CATA:1,2019-01-06T22:30:00Z,30.3085,-88.1395,0.0,15.64,11111222 
DISL,ioos:station:DISL:CATA:1,2019-01-06T23:30:00Z,30.3085,-88.1395,0.0,15.57,11111222 
DISL,ioos:station:DISL:CATA:1,2019-01-07T00:30:00Z,30.3085,-88.1395,0.0,15.54,11111222 
DISL,ioos:station:DISL:CATA:1,2019-01-07T01:30:00Z,30.3085,-88.1395,0.0,15.51,11111222 
DISL,ioos:station:DISL:CATA:1,2019-01-07T02:30:00Z,30.3085,-88.1395,0.0,15.27,11111222 
DISL,ioos:station:DISL:CATA:1,2019-01-07T03:30:00Z,30.3085,-88.1395,0.0,15.28,11111222 
DISL,ioos:station:DISL:CATA:1,2019-01-07T04:30:00Z,30.3085,-88.1395,0.0,15.26,11111222 
DISL,ioos:station:DISL:CATA:1,2019-01-07T05:30:00Z,30.3085,-88.1395,0.0,15.25,11111222 
DISL,ioos:station:DISL:CATA:1,2019-01-07T06:30:00Z,30.3085,-88.1395,0.0,15.36,11111222 
DISL,ioos:station:DISL:CATA:1,2019-01-07T15:30:00Z,30.3085,-88.1395,0.0,14.32,11111222 
DISL,ioos:station:DISL:CATA:1,2019-01-07T16:30:00Z,30.3085,-88.1395,0.0,14.58,11111222 
DISL,ioos:station:DISL:CATA:1,2019-01-07T17:30:00Z,30.3085,-88.1395,0.0,14.87,11111222 
DISL,ioos:station:DISL:CATA:1,2019-01-07T18:30:00Z,30.3085,-88.1395,0.0,15.39,11111222 
DISL,ioos:station:DISL:CATA:1,2019-01-07T19:30:00Z,30.3085,-88.1395,0.0,15.81,11111222 
DISL,ioos:station:DISL:CATA:1,2019-01-07T20:30:00Z,30.3085,-88.1395,0.0,16.15,11111222 
DISL,ioos:station:DISL:CATA:1,2019-01-07T21:30:00Z,30.3085,-88.1395,0.0,16.07,11111222 
DISL,ioos:station:DISL:CATA:1,2019-01-07T22:30:00Z,30.3085,-88.1395,0.0,16.03,11111222 
DISL,ioos:station:DISL:CATA:1,2019-01-07T23:30:00Z,30.3085,-88.1395,0.0,16.09,11111222 
DISL,ioos:station:DISL:CATA:1,2019-01-08T00:30:00Z,30.3085,-88.1395,0.0,15.59,11111222 
DISL,ioos:station:DISL:CATA:1,2019-01-08T01:30:00Z,30.3085,-88.1395,0.0,14.86,11111222 
DISL,ioos:station:DISL:CATA:1,2019-01-08T02:30:00Z,30.3085,-88.1395,0.0,14.67,11111222 
DISL,ioos:station:DISL:CATA:1,2019-01-08T03:30:00Z,30.3085,-88.1395,0.0,14.7,11111222 
DISL,ioos:station:DISL:CATA:1,2019-01-08T04:30:00Z,30.3085,-88.1395,0.0,14.72,11111222 
DISL,ioos:station:DISL:CATA:1,2019-01-08T05:30:00Z,30.3085,-88.1395,0.0,14.78,11111222 
DISL,ioos:station:DISL:CATA:1,2019-01-08T06:30:00Z,30.3085,-88.1395,0.0,15.33,11111222 
DISL,ioos:station:DISL:CATA:1,2019-01-08T07:30:00Z,30.3085,-88.1395,0.0,14.65,11111222 
DISL,ioos:station:DISL:CATA:1,2019-01-08T08:30:00Z,30.3085,-88.1395,0.0,14.62,11111222 
DISL,ioos:station:DISL:CATA:1,2019-01-08T09:30:00Z,30.3085,-88.1395,0.0,14.61,11111222 
DISL,ioos:station:DISL:CATA:1,2019-01-08T10:30:00Z,30.3085,-88.1395,0.0,14.69,11111222 
DISL,ioos:station:DISL:CATA:1,2019-01-08T11:30:00Z,30.3085,-88.1395,0.0,14.76,11111222 
DISL,ioos:station:DISL:CATA:1,2019-01-08T12:30:00Z,30.3085,-88.1395,0.0,14.91,11111222 
DISL,ioos:station:DISL:CATA:1,2019-01-08T13:30:00Z,30.3085,-88.1395,0.0,15.04,11111222 
DISL,ioos:station:DISL:CATA:1,2019-01-08T14:30:00Z,30.3085,-88.1395,0.0,14.99,11111222 
DISL,ioos:station:DISL:CATA:1,2019-01-08T15:30:00Z,30.3085,-88.1395,0.0,14.99,11111222 
DISL,ioos:station:DISL:CATA:1,2019-01-08T16:30:00Z,30.3085,-88.1395,0.0,15.04,11111222 
DISL,ioos:station:DISL:CATA:1,2019-01-08T17:30:00Z,30.3085,-88.1395,0.0,15.05,11111222 
DISL,ioos:station:DISL:CATA:1,2019-01-08T18:30:00Z,30.3085,-88.1395,0.0,15.32,11111222 
DISL,ioos:station:DISL:CATA:1,2019-01-08T19:30:00Z,30.3085,-88.1395,0.0,15.38,11111222 
DISL,ioos:station:DISL:CATA:1,2019-01-08T20:30:00Z,30.3085,-88.1395,0.0,16.04,11111222 
DISL,ioos:station:DISL:CATA:1,2019-01-08T21:30:00Z,30.3085,-88.1395,0.0,16.17,11111222 
DISL,ioos:station:DISL:CATA:1,2019-01-08T22:30:00Z,30.3085,-88.1395,0.0,16.19,11111222 
DISL,ioos:station:DISL:CATA:1,2019-01-08T23:30:00Z,30.3085,-88.1395,0.0,16.5,11111222 
DISL,ioos:station:DISL:CATA:1,2019-01-09T00:30:00Z,30.3085,-88.1395,0.0,16.42,11111222 
DISL,ioos:station:DISL:CATA:1,2019-01-09T01:30:00Z,30.3085,-88.1395,0.0,16.41,11111222 
DISL,ioos:station:DISL:CATA:1,2019-01-09T02:30:00Z,30.3085,-88.1395,0.0,16.68,11111222 
DISL,ioos:station:DISL:CATA:1,2019-01-09T03:30:00Z,30.3085,-88.1395,0.0,16.26,11111222 
DISL,ioos:station:DISL:CATA:1,2019-01-09T04:30:00Z,30.3085,-88.1395,0.0,15.74,11111222 
DISL,ioos:station:DISL:CATA:1,2019-01-09T05:30:00Z,30.3085,-88.1395,0.0,15.52,11111222 
DISL,ioos:station:DISL:CATA:1,2019-01-09T06:30:00Z,30.3085,-88.1395,0.0,15.62,11111222 
DISL,ioos:station:DISL:CATA:1,2019-01-09T07:30:00Z,30.3085,-88.1395,0.0,15.44,11111222 
DISL,ioos:station:DISL:CATA:1,2019-01-09T08:30:00Z,30.3085,-88.1395,0.0,15.41,11111222 
DISL,ioos:station:DISL:CATA:1,2019-01-09T09:30:00Z,30.3085,-88.1395,0.0,15.28,11111222 
DISL,ioos:station:DISL:CATA:1,2019-01-09T10:30:00Z,30.3085,-88.1395,0.0,14.96,11111222 
DISL,ioos:station:DISL:CATA:1,2019-01-09T11:30:00Z,30.3085,-88.1395,0.0,14.85,11111222 
DISL,ioos:station:DISL:CATA:1,2019-01-09T12:30:00Z,30.3085,-88.1395,0.0,15.03,11111222 
DISL,ioos:station:DISL:CATA:1,2019-01-09T13:30:00Z,30.3085,-88.1395,0.0,15.18,11111222 
DISL,ioos:station:DISL:CATA:1,2019-01-09T14:30:00Z,30.3085,-88.1395,0.0,15.24,11111222 
DISL,ioos:station:DISL:CATA:1,2019-01-09T17:30:00Z,30.3085,-88.1395,0.0,15.85,11111222 
DISL,ioos:station:DISL:CATA:1,2019-01-09T18:30:00Z,30.3085,-88.1395,0.0,15.93,11111222 
DISL,ioos:station:DISL:CATA:1,2019-01-09T19:30:00Z,30.3085,-88.1395,0.0,15.86,11111222 
DISL,ioos:station:DISL:CATA:1,2019-01-09T20:30:00Z,30.3085,-88.1395,0.0,16.45,11111222 
DISL,ioos:station:DISL:CATA:1,2019-01-09T21:30:00Z,30.3085,-88.1395,0.0,16.38,11111222 
DISL,ioos:station:DISL:CATA:1,2019-01-09T22:30:00Z,30.3085,-88.1395,0.0,16.22,11111222 
DISL,ioos:station:DISL:CATA:1,2019-01-09T23:30:00Z,30.3085,-88.1395,0.0,15.58,11111222 
DISL,ioos:station:DISL:CATA:1,2019-01-10T00:30:00Z,30.3085,-88.1395,0.0,15.27,11111222 
DISL,ioos:station:DISL:CATA:1,2019-01-10T01:30:00Z,30.3085,-88.1395,0.0,15.12,11111222 
DISL,ioos:station:DISL:CATA:1,2019-01-10T02:30:00Z,30.3085,-88.1395,0.0,14.97,11111222 
DISL,ioos:station:DISL:CATA:1,2019-01-10T03:30:00Z,30.3085,-88.1395,0.0,14.45,11111222 
DISL,ioos:station:DISL:CATA:1,2019-01-10T04:30:00Z,30.3085,-88.1395,0.0,14.44,11111222 
DISL,ioos:station:DISL:CATA:1,2019-01-10T05:30:00Z,30.3085,-88.1395,0.0,14.14,11111222 
DISL,ioos:station:DISL:CATA:1,2019-01-10T06:30:00Z,30.3085,-88.1395,0.0,13.8,11111222 
DISL,ioos:station:DISL:CATA:1,2019-01-10T07:30:00Z,30.3085,-88.1395,0.0,14.42,11111222 
DISL,ioos:station:DISL:CATA:1,2019-01-10T08:30:00Z,30.3085,-88.1395,0.0,14.32,11111222 
DISL,ioos:station:DISL:CATA:1,2019-01-10T09:30:00Z,30.3085,-88.1395,0.0,14.05,11111222 
DISL,ioos:station:DISL:CATA:1,2019-01-10T10:30:00Z,30.3085,-88.1395,0.0,13.77,11111222 
DISL,ioos:station:DISL:CATA:1,2019-01-10T11:30:00Z,30.3085,-88.1395,0.0,13.65,11111222 
DISL,ioos:station:DISL:CATA:1,2019-01-10T12:30:00Z,30.3085,-88.1395,0.0,13.53,11111222 
DISL,ioos:station:DISL:CATA:1,2019-01-10T13:30:00Z,30.3085,-88.1395,0.0,13.42,11111222 
DISL,ioos:station:DISL:CATA:1,2019-01-10T14:30:00Z,30.3085,-88.1395,0.0,13.34,11111222 
DISL,ioos:station:DISL:CATA:1,2019-01-10T15:30:00Z,30.3085,-88.1395,0.0,13.28,11111222 
DISL,ioos:station:DISL:CATA:1,2019-01-10T16:30:00Z,30.3085,-88.1395,0.0,13.32,11111222 
DISL,ioos:station:DISL:CATA:1,2019-01-10T17:30:00Z,30.3085,-88.1395,0.0,13.43,11111222 
DISL,ioos:station:DISL:CATA:1,2019-01-10T18:30:00Z,30.3085,-88.1395,0.0,13.57,11111222 
DISL,ioos:station:DISL:CATA:1,2019-01-10T19:30:00Z,30.3085,-88.1395,0.0,13.85,11111222 
DISL,ioos:station:DISL:CATA:1,2019-01-10T20:30:00Z,30.3085,-88.1395,0.0,14.17,11111222 
DISL,ioos:station:DISL:CATA:1,2019-01-10T21:30:00Z,30.3085,-88.1395,0.0,14.19,11111222 
DISL,ioos:station:DISL:CATA:1,2019-01-10T22:30:00Z,30.3085,-88.1395,0.0,13.99,11111222 
DISL,ioos:station:DISL:CATA:1,2019-01-10T23:30:00Z,30.3085,-88.1395,0.0,13.13,11111222 
DISL,ioos:station:DISL:CATA:1,2019-01-11T00:30:00Z,30.3085,-88.1395,0.0,13.53,11111222 
DISL,ioos:station:DISL:CATA:1,2019-01-11T01:30:00Z,30.3085,-88.1395,0.0,13.36,11111222 
DISL,ioos:station:DISL:CATA:1,2019-01-11T02:30:00Z,30.3085,-88.1395,0.0,13.11,11111222 
DISL,ioos:station:DISL:CATA:1,2019-01-11T03:30:00Z,30.3085,-88.1395,0.0,12.8,11111222 
DISL,ioos:station:DISL:CATA:1,2019-01-11T04:30:00Z,30.3085,-88.1395,0.0,12.67,11111222 
DISL,ioos:station:DISL:CATA:1,2019-01-11T05:30:00Z,30.3085,-88.1395,0.0,12.47,11111222 
DISL,ioos:station:DISL:CATA:1,2019-01-11T06:30:00Z,30.3085,-88.1395,0.0,12.32,11111222 
DISL,ioos:station:DISL:CATA:1,2019-01-11T07:30:00Z,30.3085,-88.1395,0.0,12.31,11111222 
DISL,ioos:station:DISL:CATA:1,2019-01-11T08:30:00Z,30.3085,-88.1395,0.0,12.41,11111222 
DISL,ioos:station:DISL:CATA:1,2019-01-11T09:30:00Z,30.3085,-88.1395,0.0,12.33,11111222 
DISL,ioos:station:DISL:CATA:1,2019-01-11T10:30:00Z,30.3085,-88.1395,0.0,12.16,11111222 
DISL,ioos:station:DISL:CATA:1,2019-01-11T11:30:00Z,30.3085,-88.1395,0.0,12.18,11111222 
DISL,ioos:station:DISL:CATA:1,2019-01-11T12:30:00Z,30.3085,-88.1395,0.0,11.55,11111222 
DISL,ioos:station:DISL:CATA:1,2019-01-11T13:30:00Z,30.3085,-88.1395,0.0,11.42,11111222 
DISL,ioos:station:DISL:CATA:1,2019-01-11T14:30:00Z,30.3085,-88.1395,0.0,11.37,11111222 
DISL,ioos:station:DISL:CATA:1,2019-01-11T16:30:00Z,30.3085,-88.1395,0.0,11.64,11111222 
DISL,ioos:station:DISL:CATA:1,2019-01-11T17:30:00Z,30.3085,-88.1395,0.0,11.9,11111222 
DISL,ioos:station:DISL:CATA:1,2019-01-11T18:30:00Z,30.3085,-88.1395,0.0,12.08,11111222 
DISL,ioos:station:DISL:CATA:1,2019-01-11T19:30:00Z,30.3085,-88.1395,0.0,12.28,11111222 
DISL,ioos:station:DISL:CATA:1,2019-01-11T20:30:00Z,30.3085,-88.1395,0.0,12.4,11111222 
DISL,ioos:station:DISL:CATA:1,2019-01-11T21:30:00Z,30.3085,-88.1395,0.0,12.45,11111222 
DISL,ioos:station:DISL:CATA:1,2019-01-11T22:30:00Z,30.3085,-88.1395,0.0,12.45,11111222 
DISL,ioos:station:DISL:CATA:1,2019-01-11T23:30:00Z,30.3085,-88.1395,0.0,12.39,11111222 
DISL,ioos:station:DISL:CATA:1,2019-01-12T00:30:00Z,30.3085,-88.1395,0.0,12.29,11111222 
DISL,ioos:station:DISL:CATA:1,2019-01-12T01:30:00Z,30.3085,-88.1395,0.0,12.27,11111222 
DISL,ioos:station:DISL:CATA:1,2019-01-12T02:30:00Z,30.3085,-88.1395,0.0,12.28,11111222 
DISL,ioos:station:DISL:CATA:1,2019-01-12T03:30:00Z,30.3085,-88.1395,0.0,12.27,11111222 
DISL,ioos:station:DISL:CATA:1,2019-01-12T04:30:00Z,30.3085,-88.1395,0.0,12.24,11111222 
DISL,ioos:station:DISL:CATA:1,2019-01-12T05:30:00Z,30.3085,-88.1395,0.0,12.23,11111222 
DISL,ioos:station:DISL:CATA:1,2019-01-12T06:30:00Z,30.3085,-88.1395,0.0,12.22,11111222 
DISL,ioos:station:DISL:CATA:1,2019-01-12T07:30:00Z,30.3085,-88.1395,0.0,12.24,11111222 
DISL,ioos:station:DISL:CATA:1,2019-01-12T08:30:00Z,30.3085,-88.1395,0.0,12.22,11111222 
DISL,ioos:station:DISL:CATA:1,2019-01-12T09:30:00Z,30.3085,-88.1395,0.0,12.13,11111222 
DISL,ioos:station:DISL:CATA:1,2019-01-12T10:30:00Z,30.3085,-88.1395,0.0,11.9,11111222 
DISL,ioos:station:DISL:CATA:1,2019-01-12T11:30:00Z,30.3085,-88.1395,0.0,11.94,11111222 
DISL,ioos:station:DISL:CATA:1,2019-01-12T12:30:00Z,30.3085,-88.1395,0.0,12.0,11111222 
DISL,ioos:station:DISL:CATA:1,2019-01-12T13:30:00Z,30.3085,-88.1395,0.0,12.02,11111222 
DISL,ioos:station:DISL:CATA:1,2019-01-12T14:30:00Z,30.3085,-88.1395,0.0,12.12,11111222 
DISL,ioos:station:DISL:CATA:1,2019-01-12T15:30:00Z,30.3085,-88.1395,0.0,12.15,11111222 
DISL,ioos:station:DISL:CATA:1,2019-01-12T16:30:00Z,30.3085,-88.1395,0.0,12.2,11111222 
DISL,ioos:station:DISL:CATA:1,2019-01-12T17:30:00Z,30.3085,-88.1395,0.0,12.28,11111222 
DISL,ioos:station:DISL:CATA:1,2019-01-12T18:30:00Z,30.3085,-88.1395,0.0,12.32,11111222 
DISL,ioos:station:DISL:CATA:1,2019-01-12T19:30:00Z,30.3085,-88.1395,0.0,12.43,11111222 
DISL,ioos:station:DISL:CATA:1,2019-01-12T20:30:00Z,30.3085,-88.1395,0.0,12.48,11111222 
DISL,ioos:station:DISL:CATA:1,2019-01-12T21:30:00Z,30.3085,-88.1395,0.0,12.59,11111222 
DISL,ioos:station:DISL:CATA:1,2019-01-12T22:30:00Z,30.3085,-88.1395,0.0,12.76,11111222 
DISL,ioos:station:DISL:CATA:1,2019-01-12T23:30:00Z,30.3085,-88.1395,0.0,12.83,11111222 
DISL,ioos:station:DISL:CATA:1,2019-01-13T00:30:00Z,30.3085,-88.1395,0.0,12.74,11111222 
DISL,ioos:station:DISL:CATA:1,2019-01-13T01:30:00Z,30.3085,-88.1395,0.0,12.76,11111222 
DISL,ioos:station:DISL:CATA:1,2019-01-13T02:30:00Z,30.3085,-88.1395,0.0,12.7,11111222 
DISL,ioos:station:DISL:CATA:1,2019-01-13T03:30:00Z,30.3085,-88.1395,0.0,12.87,11111222 
DISL,ioos:station:DISL:CATA:1,2019-01-13T04:30:00Z,30.3085,-88.1395,0.0,12.77,11111222 
DISL,ioos:station:DISL:CATA:1,2019-01-13T05:30:00Z,30.3085,-88.1395,0.0,12.68,11111222 
DISL,ioos:station:DISL:CATA:1,2019-01-13T06:30:00Z,30.3085,-88.1395,0.0,12.63,11111222 
DISL,ioos:station:DISL:CATA:1,2019-01-13T07:30:00Z,30.3085,-88.1395,0.0,12.57,11111222 
DISL,ioos:station:DISL:CATA:1,2019-01-13T08:30:00Z,30.3085,-88.1395,0.0,12.51,11111222 
DISL,ioos:station:DISL:CATA:1,2019-01-13T09:30:00Z,30.3085,-88.1395,0.0,12.57,11111222 
DISL,ioos:station:DISL:CATA:1,2019-01-13T10:30:00Z,30.3085,-88.1395,0.0,12.73,11111222 
DISL,ioos:station:DISL:CATA:1,2019-01-13T11:30:00Z,30.3085,-88.1395,0.0,12.7,11111222 
DISL,ioos:station:DISL:CATA:1,2019-01-13T12:30:00Z,30.3085,-88.1395,0.0,12.71,11111222 
DISL,ioos:station:DISL:CATA:1,2019-01-13T13:30:00Z,30.3085,-88.1395,0.0,12.67,11111222 
DISL,ioos:station:DISL:CATA:1,2019-01-13T14:30:00Z,30.3085,-88.1395,0.0,12.69,11111222 